WZZ330 EDDC-EDDV

Flight info

Callsign WZZ330
Flight time 0h 39m
Altitude 15000
Route OSKAN9E OSKAN M748 GENTI P203 HLZ HLZ1E
Aircraft A20N/M-SDE2E3FGHIRWXY/LB1

Departure

Time 2026-05-01 11:26
Airport Dresden Airport (EDDC)

Arrival

Time 2026-05-01 12:06
Airport Hannover Airport (EDDV)
Time Latitude Longitude Altitude Speed Heading
2026-05-01 10:56 51.13042 13.76852 744 ft 0 kts 129°
2026-05-01 11:10 51.13035 13.76866 743 ft 2 kts 130°
2026-05-01 11:10 51.13032 13.76873 741 ft 4 kts 125°
2026-05-01 11:10 51.13025 13.76899 744 ft 1 kts 82°
2026-05-01 11:10 51.13037 13.76924 745 ft 5 kts 53°
2026-05-01 11:11 51.13057 13.76953 744 ft 0 kts 38°
2026-05-01 11:11 51.13061 13.76958 744 ft 3 kts 37°
2026-05-01 11:11 51.13090 13.76944 741 ft 5 kts 301°
2026-05-01 11:11 51.13114 13.76876 741 ft 7 kts 261°
2026-05-01 11:12 51.13078 13.76810 742 ft 9 kts 221°
2026-05-01 11:12 51.13027 13.76741 741 ft 10 kts 223°
2026-05-01 11:12 51.12972 13.76662 746 ft 11 kts 220°
2026-05-01 11:12 51.12915 13.76564 745 ft 14 kts 227°
2026-05-01 11:13 51.12852 13.76474 746 ft 10 kts 220°
2026-05-01 11:13 51.12793 13.76395 743 ft 8 kts 221°
2026-05-01 11:13 51.12792 13.76393 743 ft 0 kts 221°
2026-05-01 11:14 51.12765 13.76355 745 ft 9 kts 221°
2026-05-01 11:14 51.12709 13.76280 745 ft 12 kts 220°
2026-05-01 11:15 51.12673 13.76230 749 ft 0 kts 222°
2026-05-01 11:15 51.12667 13.76221 747 ft 6 kts 221°
2026-05-01 11:15 51.12626 13.76165 752 ft 10 kts 226°
2026-05-01 11:16 51.12613 13.76143 753 ft 0 kts 208°
2026-05-01 11:16 51.12592 13.76104 751 ft 8 kts 248°
2026-05-01 11:17 51.12604 13.76006 749 ft 11 kts 307°
2026-05-01 11:17 51.12629 13.75957 748 ft 0 kts 310°
2026-05-01 11:21 51.12634 13.75947 749 ft 2 kts 311°
2026-05-01 11:21 51.12648 13.75923 752 ft 4 kts 313°
2026-05-01 11:21 51.12668 13.75889 754 ft 4 kts 312°
2026-05-01 11:22 51.12692 13.75852 754 ft 5 kts 325°
2026-05-01 11:22 51.12736 13.75842 752 ft 8 kts 20°
2026-05-01 11:22 51.12747 13.75857 753 ft 3 kts 38°
2026-05-01 11:22 51.12750 13.75860 753 ft 0 kts 38°
2026-05-01 11:25 51.12760 13.75873 751 ft 19 kts 38°
2026-05-01 11:25 51.13098 13.76332 744 ft 104 kts 41°
2026-05-01 11:26 51.13810 13.77329 739 ft 164 kts 40°
2026-05-01 11:26 51.15789 13.79611 2090 ft 183 kts 10°
2026-05-01 11:26 51.17051 13.79671 2799 ft 180 kts 345°
2026-05-01 11:27 51.18215 13.78874 3416 ft 187 kts 328°
2026-05-01 11:27 51.19179 13.77431 4057 ft 194 kts 310°
2026-05-01 11:27 51.19850 13.75511 4796 ft 200 kts 300°
2026-05-01 11:27 51.20769 13.74020 5720 ft 184 kts 339°
2026-05-01 11:28 51.21975 13.73742 6474 ft 174 kts 12°
2026-05-01 11:28 51.23176 13.74053 7125 ft 177 kts 12°
2026-05-01 11:28 51.24412 13.74155 7353 ft 180 kts
2026-05-01 11:29 51.27117 13.73357 7504 ft 237 kts 349°
2026-05-01 11:29 51.28885 13.72510 7446 ft 291 kts 345°
2026-05-01 11:29 51.33277 13.69986 7432 ft 374 kts 343°
2026-05-01 11:30 51.35829 13.68514 7423 ft 405 kts 343°
2026-05-01 11:30 51.38431 13.67018 7595 ft 382 kts 343°
2026-05-01 11:30 51.40862 13.65626 7130 ft 355 kts 343°
2026-05-01 11:30 51.43069 13.64386 7349 ft 316 kts 344°
2026-05-01 11:31 51.45038 13.63422 7407 ft 287 kts 346°
2026-05-01 11:31 51.46735 13.61991 7412 ft 270 kts 321°
2026-05-01 11:31 51.47790 13.59611 7430 ft 266 kts 299°
2026-05-01 11:31 51.48654 13.56804 7415 ft 288 kts 300°
2026-05-01 11:32 51.49560 13.53945 7406 ft 285 kts 300°
2026-05-01 11:32 51.50484 13.51116 7411 ft 287 kts 301°
2026-05-01 11:32 51.51424 13.48280 7404 ft 287 kts 301°
2026-05-01 11:32 51.52366 13.45456 7418 ft 289 kts 301°
2026-05-01 11:33 51.53316 13.42616 7408 ft 287 kts 301°
2026-05-01 11:33 51.54257 13.39799 7412 ft 286 kts 301°
2026-05-01 11:33 51.55200 13.36974 7405 ft 287 kts 301°
2026-05-01 11:33 51.56138 13.34144 7409 ft 287 kts 301°
2026-05-01 11:34 51.57072 13.31314 7408 ft 286 kts 301°
2026-05-01 11:34 51.58010 13.28480 7405 ft 289 kts 301°
2026-05-01 11:34 51.58953 13.25632 7410 ft 288 kts 301°
2026-05-01 11:34 51.59956 13.22613 7411 ft 327 kts 301°
2026-05-01 11:35 51.61092 13.19202 7410 ft 363 kts 300°
2026-05-01 11:35 51.62300 13.15538 7404 ft 374 kts 300°
2026-05-01 11:35 51.63513 13.11827 7411 ft 376 kts 300°
2026-05-01 11:35 51.64725 13.08117 7399 ft 372 kts 300°
2026-05-01 11:36 51.65937 13.04411 7406 ft 375 kts 300°
2026-05-01 11:36 51.67152 13.00699 7413 ft 375 kts 300°
2026-05-01 11:36 51.68370 12.96975 7411 ft 375 kts 300°
2026-05-01 11:36 51.69586 12.93257 7408 ft 375 kts 300°
2026-05-01 11:37 51.70801 12.89535 7409 ft 375 kts 300°
2026-05-01 11:37 51.72013 12.85812 7406 ft 375 kts 300°
2026-05-01 11:37 51.73224 12.82093 7412 ft 375 kts 299°
2026-05-01 11:37 51.74439 12.78341 7420 ft 384 kts 299°
2026-05-01 11:38 51.75699 12.74466 7417 ft 391 kts 299°
2026-05-01 11:38 51.76957 12.70579 7416 ft 391 kts 299°
2026-05-01 11:38 51.78215 12.66690 7415 ft 391 kts 299°
2026-05-01 11:38 51.79473 12.62793 7418 ft 391 kts 299°
2026-05-01 11:39 51.80728 12.58897 7418 ft 391 kts 299°
2026-05-01 11:39 51.81985 12.54987 7424 ft 392 kts 299°
2026-05-01 11:39 51.83220 12.51137 7419 ft 391 kts 299°
2026-05-01 11:39 51.84473 12.47224 7420 ft 392 kts 299°
2026-05-01 11:40 51.85723 12.43313 7414 ft 391 kts 299°
2026-05-01 11:40 51.86972 12.39401 7417 ft 392 kts 298°
2026-05-01 11:40 51.88224 12.35477 7426 ft 392 kts 298°
2026-05-01 11:40 51.89471 12.31559 7417 ft 391 kts 298°
2026-05-01 11:41 51.90729 12.27645 7425 ft 392 kts 300°
2026-05-01 11:41 51.91991 12.23722 7413 ft 392 kts 298°
2026-05-01 11:41 51.93204 12.19771 7412 ft 392 kts 297°
2026-05-01 11:41 51.94422 12.15807 7420 ft 393 kts 298°
2026-05-01 11:42 51.95651 12.11856 7425 ft 392 kts 298°
2026-05-01 11:42 51.96919 12.07937 7421 ft 393 kts 298°
2026-05-01 11:42 51.98146 12.03985 7418 ft 392 kts 297°
2026-05-01 11:42 51.99352 12.00016 7422 ft 392 kts 297°
2026-05-01 11:43 52.00565 11.96052 7414 ft 392 kts 298°
2026-05-01 11:43 52.01790 11.92102 7422 ft 393 kts 298°
2026-05-01 11:43 52.03027 11.88140 7420 ft 393 kts 298°
2026-05-01 11:44 52.05507 11.80226 7421 ft 393 kts 298°
2026-05-01 11:44 52.06746 11.76269 7416 ft 393 kts 298°
2026-05-01 11:44 52.07994 11.72306 7416 ft 393 kts 298°
2026-05-01 11:44 52.09225 11.68342 7413 ft 393 kts 297°
2026-05-01 11:45 52.10451 11.64374 7423 ft 394 kts 297°
2026-05-01 11:45 52.11680 11.60395 7416 ft 393 kts 297°
2026-05-01 11:45 52.12908 11.56422 7421 ft 393 kts 297°
2026-05-01 11:45 52.14139 11.52440 7423 ft 395 kts 297°
2026-05-01 11:46 52.15367 11.48464 7419 ft 392 kts 297°
2026-05-01 11:46 52.16372 11.44329 7417 ft 395 kts 287°
2026-05-01 11:46 52.17057 11.40008 7419 ft 394 kts 283°
2026-05-01 11:46 52.17670 11.35657 7415 ft 394 kts 283°
2026-05-01 11:47 52.18354 11.31323 7414 ft 395 kts 284°
2026-05-01 11:47 52.19002 11.26985 7416 ft 394 kts 283°
2026-05-01 11:47 52.19644 11.22651 7411 ft 394 kts 284°
2026-05-01 11:47 52.20301 11.18300 7412 ft 395 kts 284°
2026-05-01 11:48 52.20964 11.13970 7405 ft 394 kts 284°
2026-05-01 11:48 52.21636 11.09629 7408 ft 394 kts 284°
2026-05-01 11:48 52.22311 11.05286 7407 ft 395 kts 284°
2026-05-01 11:48 52.22757 11.02418 7412 ft 395 kts 284°
2026-05-01 11:49 52.23413 10.98063 7406 ft 395 kts 282°
2026-05-01 11:49 52.24049 10.93720 7405 ft 394 kts 284°
2026-05-01 11:49 52.24735 10.89385 7405 ft 395 kts 284°
2026-05-01 11:49 52.25426 10.85055 7406 ft 395 kts 284°
2026-05-01 11:50 52.26108 10.80717 7403 ft 395 kts 284°
2026-05-01 11:50 52.26850 10.74906 7403 ft 395 kts 279°
2026-05-01 11:50 52.27160 10.71920 7405 ft 394 kts 279°
2026-05-01 11:50 52.27621 10.67506 7406 ft 395 kts 279°
2026-05-01 11:51 52.28081 10.63092 7405 ft 395 kts 279°
2026-05-01 11:51 52.28541 10.58673 7407 ft 395 kts 279°
2026-05-01 11:51 52.29003 10.54250 7402 ft 395 kts 279°
2026-05-01 11:51 52.29465 10.49832 7401 ft 395 kts 279°
2026-05-01 11:52 52.29924 10.45460 7406 ft 395 kts 279°
2026-05-01 11:52 52.30393 10.40986 7408 ft 395 kts 279°
2026-05-01 11:52 52.30861 10.36558 7408 ft 394 kts 279°
2026-05-01 11:52 52.31326 10.32146 7411 ft 396 kts 279°
2026-05-01 11:53 52.31796 10.27713 7399 ft 394 kts 279°
2026-05-01 11:53 52.32262 10.23301 7398 ft 395 kts 277°
2026-05-01 11:53 52.32465 10.18822 7398 ft 394 kts 274°
2026-05-01 11:53 52.32826 10.14445 7394 ft 377 kts 279°
2026-05-01 11:54 52.33265 10.10386 7396 ft 352 kts 279°
2026-05-01 11:54 52.33701 10.06408 7400 ft 359 kts 279°
2026-05-01 11:54 52.34141 10.02392 7397 ft 358 kts 279°
2026-05-01 11:54 52.34579 9.98371 7398 ft 360 kts 278°
2026-05-01 11:55 52.35025 9.94353 7395 ft 357 kts 279°
2026-05-01 11:55 52.35471 9.90361 7401 ft 357 kts 279°
2026-05-01 11:55 52.35919 9.86366 7396 ft 358 kts 279°
2026-05-01 11:55 52.36364 9.82385 7405 ft 357 kts 279°
2026-05-01 11:56 52.36814 9.78364 7402 ft 361 kts 278°
2026-05-01 11:56 52.37172 9.74317 7339 ft 357 kts 275°
2026-05-01 11:56 52.37420 9.70305 7020 ft 352 kts 274°
2026-05-01 11:56 52.37656 9.66323 6530 ft 350 kts 274°
2026-05-01 11:57 52.37892 9.62375 6040 ft 347 kts 274°
2026-05-01 11:57 52.38139 9.58511 5595 ft 344 kts 274°
2026-05-01 11:57 52.38385 9.54584 5100 ft 338 kts 274°
2026-05-01 11:57 52.38622 9.50922 4880 ft 317 kts 274°
2026-05-01 11:58 52.38847 9.47415 4566 ft 304 kts 274°
2026-05-01 11:58 52.39071 9.43996 4021 ft 303 kts 274°
2026-05-01 11:58 52.39548 9.37185 3269 ft 301 kts 281°
2026-05-01 11:59 52.40419 9.34081 3028 ft 299 kts 307°
2026-05-01 11:59 52.41949 9.31985 2962 ft 276 kts 335°
2026-05-01 11:59 52.43714 9.31325 2970 ft 250 kts
2026-05-01 12:00 52.46232 9.33840 2978 ft 205 kts 63°
2026-05-01 12:00 52.46919 9.35741 2959 ft 182 kts 64°
2026-05-01 12:00 52.47201 9.39007 2956 ft 138 kts 123°
2026-05-01 12:01 52.46720 9.40314 2767 ft 133 kts 124°
2026-05-01 12:01 52.46320 9.41673 2592 ft 136 kts 109°
2026-05-01 12:01 52.46121 9.43301 2539 ft 152 kts 100°
2026-05-01 12:01 52.46056 9.45015 2473 ft 149 kts 92°
2026-05-01 12:02 52.46036 9.46634 2433 ft 138 kts 97°
2026-05-01 12:02 52.45987 9.48170 2329 ft 132 kts 95°
2026-05-01 12:02 52.45952 9.49658 2203 ft 127 kts 97°
2026-05-01 12:02 52.45915 9.51069 2046 ft 121 kts 97°
2026-05-01 12:03 52.45875 9.52519 1956 ft 134 kts 96°
2026-05-01 12:03 52.45837 9.54039 1803 ft 135 kts 95°
2026-05-01 12:03 52.45798 9.55546 1617 ft 128 kts 94°
2026-05-01 12:03 52.45767 9.56998 1485 ft 129 kts 96°
2026-05-01 12:04 52.45724 9.58497 1321 ft 137 kts 96°
2026-05-01 12:04 52.45680 9.60068 1188 ft 137 kts 96°
2026-05-01 12:04 52.45641 9.61638 898 ft 134 kts 94°
2026-05-01 12:04 52.45613 9.63079 727 ft 122 kts 92°
2026-05-01 12:05 52.45603 9.64492 592 ft 127 kts 94°
2026-05-01 12:05 52.45498 9.67331 294 ft 130 kts 87°
2026-05-01 12:05 52.45469 9.68754 181 ft 102 kts 90°
2026-05-01 12:06 52.45457 9.69382 193 ft 31 kts 95°
2026-05-01 12:06 52.45437 9.69669 184 ft 25 kts 100°
2026-05-01 12:06 52.45426 9.69944 183 ft 24 kts 90°
2026-05-01 12:06 52.45429 9.70205 181 ft 22 kts 107°
2026-05-01 12:07 52.45419 9.70439 185 ft 19 kts 92°
2026-05-01 12:07 52.45451 9.70646 198 ft 20 kts 42°
2026-05-01 12:07 52.45535 9.70668 187 ft 0 kts
2026-05-01 12:07 52.45544 9.70668 190 ft 3 kts
2026-05-01 12:08 52.45577 9.70669 200 ft 0 kts
2026-05-01 12:08 52.45578 9.70669 200 ft 2 kts
2026-05-01 12:08 52.45607 9.70668 190 ft 7 kts 354°
2026-05-01 12:08 52.45652 9.70587 183 ft 13 kts 278°
2026-05-01 12:09 52.45656 9.70431 197 ft 13 kts 274°
2026-05-01 12:09 52.45663 9.70300 188 ft 12 kts 264°
2026-05-01 12:09 52.45662 9.70229 185 ft 0 kts 278°
2026-05-01 12:09 52.45663 9.70224 185 ft 0 kts 277°
2026-05-01 12:10 52.45663 9.70215 185 ft 3 kts 275°
2026-05-01 12:10 52.45685 9.70187 195 ft 5 kts 13°
2026-05-01 12:10 52.45740 9.70191 182 ft 7 kts
2026-05-01 12:11 52.45754 9.70191 181 ft 0 kts 359°